W5CI Weather Reports


Display with metric or nautical units.
time (UTC)temp
F
wind
direction
speed
MPH
gust
MPH
rain 1hr
in
rain 24hr
in
rain mn
in
humidity
%
barometer
mb
20260504231540 78 253 3.0 7.0 0.00 0.00 0.00 49 1008.6
20260504230035 79 233 5.0 12.0 0.00 0.00 0.00 46 1008.8
20260504224535 80 226 3.0 12.0 0.00 0.00 0.00 46 1008.8
20260504223033 80 160 4.0 9.0 0.00 0.00 0.00 46 1008.7
20260504221531 80 160 4.0 9.0 0.00 0.00 0.00 47 1008.8
20260504220035 80 171 4.0 9.0 0.00 0.00 0.00 47 1008.9
20260504214530 80 197 4.0 10.0 0.00 0.00 0.00 44 1009.0
20260504213034 80 167 6.0 10.0 0.00 0.00 0.00 45 1009.1
20260504211532 80 173 5.0 11.0 0.00 0.00 0.00 47 1009.3
20260504210050 79 165 4.0 10.0 0.00 0.00 0.00 48 1009.5
20260504204534 80 239 4.0 14.0 0.00 0.00 0.00 47 1009.8
20260504203034 80 242 5.0 11.0 0.00 0.00 0.00 46 1010.1
20260504201535 80 183 6.0 11.0 0.00 0.00 0.00 45 1010.3
20260504200033 79 218 5.0 11.0 0.00 0.00 0.00 47 1010.6
20260504194550 79 176 5.0 11.0 0.00 0.00 0.00 46 1010.8
20260504193032 79 240 5.0 12.0 0.00 0.00 0.00 47 1010.8
20260504191540 80 149 5.0 14.0 0.00 0.00 0.00 47 1011.2
20260504190035 79 184 4.0 12.0 0.00 0.00 0.00 48 1011.3
20260504184539 78 150 6.0 16.0 0.00 0.00 0.00 47 1011.4
20260504183032 78 180 4.0 11.0 0.00 0.00 0.00 50 1011.6
20260504181539 78 205 6.0 13.0 0.00 0.00 0.00 49 1011.9
20260504180055 77 198 3.0 10.0 0.00 0.00 0.00 50 1012.0
20260504174530 76 160 4.0 13.0 0.00 0.00 0.00 53 1012.3
20260504173036 76 248 6.0 12.0 0.00 0.00 0.00 51 1012.5
20260504171532 75 245 5.0 11.0 0.00 0.00 0.00 53 1012.7
20260504081531 63 208 1.0 3.0 0.00 0.00 0.00 73 1013.3
20260504044536 66 143 1.0 2.0 0.00 0.00 0.00 69 1014.2
20260504043034 67 158 0.0 2.0 0.00 0.00 0.00 67 1014.4
20260504041536 67 165 1.0 2.0 0.00 0.00 0.00 67 1014.4
20260504040034 67 152 1.0 2.0 0.00 0.00 0.00 66 1014.6
20260504034547 68 156 1.0 2.0 0.00 0.00 0.00 65 1014.6
20260504033036 68 239 2.0 3.0 0.00 0.00 0.00 65 1014.5
20260504031545 68 165 1.0 3.0 0.00 0.00 0.00 64 1014.6
20260504030040 68 172 1.0 3.0 0.00 0.00 0.00 63 1014.4
20260504024542 68 155 1.0 3.0 0.00 0.00 0.00 63 1014.5
20260504023034 68 152 1.0 2.0 0.00 0.00 0.00 66 1014.3
20260504021532 68 136 1.0 2.0 0.00 0.00 0.00 66 1014.3
20260504020038 69 133 0.0 1.0 0.00 0.00 0.00 64 1014.4
20260504014532 70 140 1.0 1.0 0.00 0.00 0.00 62 1014.2
20260504013037 71 145 0.0 2.0 0.00 0.00 0.00 59 1014.2
20260504011533 71 150 0.0 1.0 0.00 0.00 0.00 57 1014.2
20260504010042 72 155 0.0 1.0 0.00 0.00 0.00 56 1014.1
20260504004534 74 158 1.0 2.0 0.00 0.00 0.00 53 1014.0
20260504003041 75 155 1.0 2.0 0.00 0.00 0.00 51 1014.1
20260504001535 79 203 0.0 1.0 0.00 0.00 0.00 45 1014.2
20260504000037 80 196 1.0 3.0 0.00 0.00 0.00 43 1014.3
20260503234535 80 242 1.0 3.0 0.00 0.00 0.00 42 1014.4
20260503233033 81 248 1.0 3.0 0.00 0.00 0.00 42 1014.5